Time,TemperatureF,DewpointF,PressureIn,WindDirection,WindDirectionDegrees,WindSpeedMPH,WindSpeedGustMPH,Humidity,HourlyPrecipIn,Conditions,Clouds,dailyrainin,SoftwareType,DateUTC
2013-04-13 00:03:00,40.0,34.0,-100.00,NNW,345,6.0,12.0,79,0.00,,,-99.99,,2013-04-13 04:03:00,
2013-04-13 00:12:00,40.0,34.0,-100.00,NNW,345,4.0,12.0,80,0.00,,,-99.99,,2013-04-13 04:12:00,
2013-04-13 00:23:00,40.0,34.0,-100.00,North,0,4.0,14.0,79,0.00,,,-99.99,,2013-04-13 04:23:00,
2013-04-13 00:33:00,40.0,34.0,-100.00,North,10,7.0,13.0,79,0.00,,,-99.99,,2013-04-13 04:33:00,
2013-04-13 00:42:00,40.0,34.0,-100.00,North,10,5.0,13.0,80,0.00,,,-99.99,,2013-04-13 04:42:00,
2013-04-13 00:53:00,40.0,34.0,-100.00,North,355,7.0,12.0,80,0.00,,,-99.99,,2013-04-13 04:53:00,
2013-04-13 01:03:00,40.0,34.0,-100.00,North,355,7.0,12.0,80,0.00,,,-99.99,,2013-04-13 05:03:00,
2013-04-13 01:12:00,40.0,34.0,-100.00,North,350,7.0,14.0,80,0.00,,,-99.99,,2013-04-13 05:12:00,
2013-04-13 01:22:00,40.0,35.0,-100.00,North,10,4.0,12.0,80,0.00,,,-99.99,,2013-04-13 05:22:00,
2013-04-13 01:32:00,40.0,35.0,-100.00,North,5,4.0,12.0,80,0.00,,,-99.99,,2013-04-13 05:32:00,
2013-04-13 01:43:00,40.0,35.0,-100.00,NNE,15,6.0,13.0,80,0.00,,,-99.99,,2013-04-13 05:43:00,
2013-04-13 01:52:00,40.0,35.0,-100.00,North,10,6.0,10.0,80,0.00,,,-99.99,,2013-04-13 05:52:00,
2013-04-13 02:02:00,40.0,35.0,-100.00,North,355,7.0,11.0,80,0.00,,,-99.99,,2013-04-13 06:02:00,
2013-04-13 02:12:00,40.0,35.0,-100.00,North,0,7.0,12.0,80,0.00,,,-99.99,,2013-04-13 06:12:00,
2013-04-13 02:24:00,40.0,35.0,-100.00,North,5,7.0,13.0,80,0.00,,,-99.99,,2013-04-13 06:24:00,
2013-04-13 02:53:00,41.0,35.0,-100.00,NNE,15,6.0,10.0,79,0.00,,,-99.99,,2013-04-13 06:53:00,
2013-04-13 03:06:00,41.0,35.0,-100.00,North,10,6.0,11.0,79,0.00,,,-99.99,,2013-04-13 07:06:00,
2013-04-13 03:15:00,41.0,35.0,-100.00,North,350,7.0,11.0,79,0.00,,,-99.99,,2013-04-13 07:15:00,
2013-04-13 03:24:00,41.0,35.0,-100.00,NNE,20,6.0,10.0,78,0.00,,,-99.99,,2013-04-13 07:24:00,
2013-04-13 03:35:00,41.0,35.0,-100.00,North,0,4.0,9.0,79,0.00,,,-99.99,,2013-04-13 07:35:00,
2013-04-13 03:45:00,41.0,35.0,-100.00,North,5,5.0,12.0,79,0.00,,,-99.99,,2013-04-13 07:45:00,
2013-04-13 03:54:00,41.0,35.0,-100.00,North,5,5.0,11.0,79,0.00,,,-99.99,,2013-04-13 07:54:00,
2013-04-13 04:07:00,41.0,35.0,-100.00,North,0,6.0,11.0,79,0.00,,,-99.99,,2013-04-13 08:07:00,
2013-04-13 04:25:00,41.0,35.0,-100.00,NNE,20,7.0,14.0,79,0.00,,,-99.99,,2013-04-13 08:25:00,
2013-04-13 04:35:00,41.0,35.0,-100.00,NNE,15,8.0,12.0,78,0.00,,,-99.99,,2013-04-13 08:35:00,
2013-04-13 04:45:00,41.0,35.0,-100.00,NNE,15,6.0,11.0,78,0.00,,,-99.99,,2013-04-13 08:45:00,
2013-04-13 04:53:00,40.0,34.0,-100.00,NNE,15,9.0,14.0,78,0.00,,,-99.99,,2013-04-13 08:53:00,
2013-04-13 05:05:00,41.0,34.0,-100.00,NNE,25,9.0,14.0,78,0.00,,,-99.99,,2013-04-13 09:05:00,
2013-04-13 05:14:00,41.0,34.0,-100.00,NNE,15,8.0,16.0,78,0.00,,,-99.99,,2013-04-13 09:14:00,
2013-04-13 05:24:00,41.0,34.0,-100.00,NNE,20,9.0,15.0,78,0.00,,,-99.99,,2013-04-13 09:24:00,
2013-04-13 05:37:00,41.0,34.0,-100.00,NNE,20,9.0,15.0,77,0.00,,,-99.99,,2013-04-13 09:37:00,
2013-04-13 05:50:00,40.0,34.0,-100.00,North,10,6.0,10.0,78,0.00,,,-99.99,,2013-04-13 09:50:00,
2013-04-13 06:05:00,39.0,34.0,-100.00,NNE,15,10.0,19.0,82,0.00,,,-99.99,,2013-04-13 10:05:00,
2013-04-13 06:15:00,38.0,33.0,-100.00,NNE,20,7.0,16.0,81,0.00,,,-99.99,,2013-04-13 10:15:00,
2013-04-13 06:24:00,38.0,33.0,-100.00,North,10,9.0,14.0,81,0.00,,,-99.99,,2013-04-13 10:24:00,
2013-04-13 06:37:00,38.0,33.0,-100.00,NNE,30,12.0,17.0,81,0.00,,,-99.99,,2013-04-13 10:37:00,
2013-04-13 06:46:00,38.0,32.0,-100.00,NNE,25,11.0,18.0,77,0.00,,,-99.99,,2013-04-13 10:46:00,
2013-04-13 06:53:00,39.0,31.0,-100.00,NNE,20,9.0,18.0,75,0.00,,,-99.99,,2013-04-13 10:53:00,
2013-04-13 07:07:00,39.0,31.0,-100.00,NNE,15,9.0,15.0,72,0.00,,,-99.99,,2013-04-13 11:07:00,
2013-04-13 07:13:00,39.0,30.0,-100.00,NNE,25,12.0,22.0,71,0.00,,,-99.99,,2013-04-13 11:13:00,
2013-04-13 07:24:00,39.0,30.0,-100.00,NNE,25,12.0,18.0,69,0.00,,,-99.99,,2013-04-13 11:24:00,
2013-04-13 07:34:00,38.0,29.0,-100.00,North,10,6.0,14.0,70,0.00,,,-99.99,,2013-04-13 11:34:00,
2013-04-13 07:44:00,38.0,29.0,-100.00,NNE,20,6.0,14.0,69,0.00,,,-99.99,,2013-04-13 11:44:00,
2013-04-13 07:53:00,38.0,29.0,-100.00,NNE,30,9.0,13.0,69,0.00,,,-99.99,,2013-04-13 11:53:00,
2013-04-13 08:15:00,38.0,29.0,-100.00,NNE,20,9.0,19.0,67,0.00,,,-99.99,,2013-04-13 12:15:00,
2013-04-13 08:25:00,39.0,28.0,-100.00,NNE,25,9.0,17.0,65,0.00,,,-99.99,,2013-04-13 12:25:00,
2013-04-13 08:36:00,39.0,28.0,-100.00,NNE,25,9.0,17.0,65,0.00,,,-99.99,,2013-04-13 12:36:00,
2013-04-13 08:47:00,39.0,28.0,-100.00,NNE,25,10.0,21.0,63,0.00,,,-99.99,,2013-04-13 12:47:00,
2013-04-13 08:54:00,39.0,28.0,-100.00,NNE,30,9.0,19.0,63,0.00,,,-99.99,,2013-04-13 12:54:00,
2013-04-13 09:07:00,40.0,28.0,-100.00,NNE,25,9.0,15.0,63,0.00,,,-99.99,,2013-04-13 13:07:00,
2013-04-13 09:16:00,40.0,28.0,-100.00,NNE,30,9.0,15.0,62,0.00,,,-99.99,,2013-04-13 13:16:00,
2013-04-13 09:47:00,40.0,28.0,-100.00,NNE,25,7.0,16.0,62,0.00,,,-99.99,,2013-04-13 13:47:00,
2013-04-13 09:54:00,40.0,28.0,-100.00,NNE,25,7.0,16.0,62,0.00,,,-99.99,,2013-04-13 13:54:00,
2013-04-13 10:05:00,40.0,28.0,-100.00,NNE,25,7.0,15.0,62,0.00,,,-99.99,,2013-04-13 14:05:00,
2013-04-13 10:14:00,40.0,28.0,-100.00,NNE,20,6.0,12.0,61,0.00,,,-99.99,,2013-04-13 14:14:00,
2013-04-13 10:23:00,40.0,28.0,-100.00,North,5,10.0,14.0,61,0.00,,,-99.99,,2013-04-13 14:23:00,
2013-04-13 10:39:00,40.0,28.0,-100.00,North,350,9.0,15.0,62,0.00,,,-99.99,,2013-04-13 14:39:00,
2013-04-13 10:46:00,40.0,29.0,-100.00,NNE,15,7.0,13.0,63,0.00,,,-99.99,,2013-04-13 14:46:00,
2013-04-13 10:55:00,41.0,30.0,-100.00,NNW,345,8.0,14.0,64,0.00,,,-99.99,,2013-04-13 14:55:00,
2013-04-13 11:05:00,41.0,30.0,-100.00,North,10,8.0,16.0,64,0.00,,,-99.99,,2013-04-13 15:05:00,
2013-04-13 11:14:00,41.0,31.0,-100.00,NNE,15,5.0,14.0,66,0.00,,,-99.99,,2013-04-13 15:14:00,
2013-04-13 11:29:00,42.0,32.0,-100.00,North,10,6.0,13.0,67,0.00,,,-99.99,,2013-04-13 15:29:00,
2013-04-13 11:37:00,41.0,32.0,-100.00,NNW,335,8.0,14.0,68,0.00,,,-99.99,,2013-04-13 15:37:00,
2013-04-13 11:44:00,41.0,32.0,-100.00,North,0,7.0,16.0,70,0.00,,,-99.99,,2013-04-13 15:44:00,
2013-04-13 11:55:00,42.0,33.0,-100.00,North,10,10.0,15.0,72,0.00,,,-99.99,,2013-04-13 15:55:00,
2013-04-13 12:07:00,42.0,33.0,-100.00,North,0,9.0,14.0,70,0.00,,,-99.99,,2013-04-13 16:07:00,
2013-04-13 12:15:00,42.0,33.0,-100.00,NNW,345,10.0,17.0,70,0.00,,,-99.99,,2013-04-13 16:15:00,
2013-04-13 12:24:00,41.0,34.0,-100.00,NNE,15,11.0,19.0,74,0.00,,,-99.99,,2013-04-13 16:24:00,
2013-04-13 12:36:00,39.0,35.0,-100.00,ENE,60,9.0,18.0,86,0.00,,,-99.99,,2013-04-13 16:36:00,
2013-04-13 12:45:00,39.0,36.0,-100.00,NE,35,6.0,12.0,91,0.00,,,-99.99,,2013-04-13 16:45:00,
2013-04-13 12:54:00,39.0,36.0,-100.00,NE,35,6.0,12.0,91,0.00,,,-99.99,,2013-04-13 16:54:00,
2013-04-13 13:08:00,40.0,38.0,-100.00,North,0,2.0,11.0,93,0.00,,,-99.99,,2013-04-13 17:08:00,
2013-04-13 13:21:00,40.0,39.0,-100.00,NNE,30,3.0,7.0,93,0.00,,,-99.99,,2013-04-13 17:21:00,
2013-04-13 13:38:00,41.0,37.0,-100.00,NNE,30,12.0,17.0,85,0.00,,,-99.99,,2013-04-13 17:38:00,
2013-04-13 13:44:00,41.0,37.0,-100.00,NNE,30,12.0,17.0,85,0.00,,,-99.99,,2013-04-13 17:44:00,
2013-04-13 13:59:00,39.0,37.0,-100.00,NE,45,7.0,10.0,92,0.00,,,-99.99,,2013-04-13 17:59:00,
2013-04-13 14:07:00,39.0,37.0,-100.00,NE,35,9.0,13.0,92,0.00,,,-99.99,,2013-04-13 18:07:00,
2013-04-13 14:15:00,39.0,37.0,-100.00,NNE,30,13.0,20.0,92,0.00,,,-99.99,,2013-04-13 18:15:00,
2013-04-13 14:25:00,40.0,38.0,-100.00,North,10,9.0,18.0,93,0.00,,,-99.99,,2013-04-13 18:25:00,
2013-04-13 14:33:00,40.0,38.0,-100.00,NNE,20,9.0,16.0,92,0.00,,,-99.99,,2013-04-13 18:33:00,
2013-04-13 14:42:00,40.0,38.0,-100.00,NNE,25,11.0,15.0,90,0.00,,,-99.99,,2013-04-13 18:42:00,
2013-04-13 14:52:00,41.0,38.0,-100.00,NNW,345,8.0,15.0,89,0.00,,,-99.99,,2013-04-13 18:52:00,
2013-04-13 15:03:00,41.0,38.0,-100.00,NNE,15,9.0,14.0,89,0.00,,,-99.99,,2013-04-13 19:03:00,
2013-04-13 15:12:00,41.0,38.0,-100.00,NNW,335,9.0,15.0,89,0.00,,,-99.99,,2013-04-13 19:12:00,
2013-04-13 15:22:00,41.0,38.0,-100.00,NNW,335,9.0,15.0,89,0.00,,,-99.99,,2013-04-13 19:22:00,
2013-04-13 15:32:00,39.0,37.0,-100.00,NNE,15,11.0,18.0,91,0.00,,,-99.99,,2013-04-13 19:32:00,
2013-04-13 15:42:00,40.0,38.0,-100.00,NNE,15,11.0,17.0,92,0.00,,,-99.99,,2013-04-13 19:42:00,
2013-04-13 15:52:00,40.0,38.0,-100.00,NNE,25,11.0,17.0,91,0.00,,,-99.99,,2013-04-13 19:52:00,
2013-04-13 16:02:00,41.0,38.0,-100.00,NNE,20,9.0,14.0,90,0.00,,,-99.99,,2013-04-13 20:02:00,
2013-04-13 16:12:00,41.0,38.0,-100.00,NNE,20,9.0,14.0,90,0.00,,,-99.99,,2013-04-13 20:12:00,
2013-04-13 16:22:00,41.0,38.0,-100.00,NNE,30,9.0,13.0,90,0.00,,,-99.99,,2013-04-13 20:22:00,
2013-04-13 16:32:00,41.0,38.0,-100.00,NNE,15,7.0,13.0,90,0.00,,,-99.99,,2013-04-13 20:32:00,
2013-04-13 16:42:00,41.0,37.0,-100.00,NNE,15,6.0,12.0,85,0.00,,,-99.99,,2013-04-13 20:42:00,
2013-04-13 16:53:00,41.0,37.0,-100.00,NNE,15,6.0,12.0,85,0.00,,,-99.99,,2013-04-13 20:53:00,
2013-04-13 17:02:00,41.0,37.0,-100.00,NE,35,5.0,12.0,84,0.00,,,-99.99,,2013-04-13 21:02:00,
2013-04-13 17:12:00,40.0,38.0,-100.00,NE,45,6.0,8.0,91,6.22,,,-99.99,,2013-04-13 21:12:00,
2013-04-13 17:22:00,40.0,38.0,-100.00,NNE,30,4.0,7.0,93,0.00,,,-99.99,,2013-04-13 21:22:00,
2013-04-13 17:33:00,40.0,38.0,-100.00,NNE,25,6.0,10.0,93,0.00,,,-99.99,,2013-04-13 21:33:00,
2013-04-13 17:43:00,40.0,38.0,-100.00,NNE,30,6.0,11.0,92,0.00,,,-99.99,,2013-04-13 21:43:00,
2013-04-13 17:52:00,40.0,38.0,-100.00,NNE,25,7.0,11.0,90,0.00,,,-99.99,,2013-04-13 21:52:00,
2013-04-13 18:03:00,40.0,38.0,-100.00,NNE,25,7.0,11.0,90,0.00,,,-99.99,,2013-04-13 22:03:00,
2013-04-13 18:12:00,40.0,38.0,-100.00,NNE,25,7.0,11.0,90,0.00,,,-99.99,,2013-04-13 22:12:00,
2013-04-13 18:22:00,39.0,37.0,-100.00,NE,35,7.0,10.0,92,0.00,,,-99.99,,2013-04-13 22:22:00,
2013-04-13 18:33:00,39.0,37.0,-100.00,NE,50,6.0,13.0,93,0.00,,,-99.99,,2013-04-13 22:33:00,
2013-04-13 18:42:00,39.0,37.0,-100.00,NE,35,9.0,14.0,94,0.00,,,-99.99,,2013-04-13 22:42:00,
2013-04-13 18:53:00,38.0,37.0,-100.00,NE,45,6.0,11.0,95,0.00,,,-99.99,,2013-04-13 22:53:00,
2013-04-13 19:02:00,38.0,37.0,-100.00,NNE,20,11.0,17.0,96,0.00,,,-99.99,,2013-04-13 23:02:00,
2013-04-13 19:12:00,37.0,36.0,-100.00,NNE,25,14.0,19.0,96,0.00,,,-99.99,,2013-04-13 23:12:00,
2013-04-13 19:22:00,37.0,36.0,-100.00,NNE,30,10.0,24.0,96,0.00,,,-99.99,,2013-04-13 23:22:00,
2013-04-13 19:33:00,36.0,35.0,-100.00,NNE,30,14.0,24.0,96,0.00,,,-99.99,,2013-04-13 23:33:00,
2013-04-13 19:42:00,36.0,35.0,-100.00,NNE,25,11.0,23.0,95,0.00,,,-99.99,,2013-04-13 23:42:00,
2013-04-13 19:52:00,37.0,35.0,-100.00,NNE,20,9.0,16.0,94,0.00,,,-99.99,,2013-04-13 23:52:00,
2013-04-13 20:03:00,37.0,35.0,-100.00,NNE,30,12.0,17.0,93,0.00,,,-99.99,,2013-04-14 00:03:00,
2013-04-13 20:12:00,37.0,35.0,-100.00,NE,35,10.0,16.0,92,0.00,,,-99.99,,2013-04-14 00:12:00,
2013-04-13 20:22:00,37.0,35.0,-100.00,NNE,25,10.0,13.0,92,0.00,,,-99.99,,2013-04-14 00:22:00,
2013-04-13 20:32:00,37.0,35.0,-100.00,NNE,25,11.0,16.0,91,0.00,,,-99.99,,2013-04-14 00:32:00,
2013-04-13 20:42:00,37.0,34.0,-100.00,NNE,30,11.0,18.0,88,0.00,,,-99.99,,2013-04-14 00:42:00,
2013-04-13 20:52:00,37.0,34.0,-100.00,NNE,15,11.0,20.0,86,0.00,,,-99.99,,2013-04-14 00:52:00,
2013-04-13 21:02:00,37.0,33.0,-100.00,NNE,30,9.0,14.0,85,0.00,,,-99.99,,2013-04-14 01:02:00,
2013-04-13 21:12:00,37.0,33.0,-100.00,NNE,25,7.0,14.0,85,0.00,,,-99.99,,2013-04-14 01:12:00,
2013-04-13 21:22:00,37.0,33.0,-100.00,NNE,25,9.0,12.0,85,0.00,,,-99.99,,2013-04-14 01:22:00,
2013-04-13 21:32:00,37.0,33.0,-100.00,NNE,25,5.0,11.0,86,0.00,,,-99.99,,2013-04-14 01:32:00,
2013-04-13 21:42:00,37.0,33.0,-100.00,NNE,30,7.0,10.0,87,0.00,,,-99.99,,2013-04-14 01:42:00,
2013-04-13 21:52:00,37.0,33.0,-100.00,NNE,20,7.0,9.0,87,0.00,,,-99.99,,2013-04-14 01:52:00,
2013-04-13 22:02:00,37.0,33.0,-100.00,NNE,20,7.0,11.0,87,0.00,,,-99.99,,2013-04-14 02:02:00,
2013-04-13 22:12:00,37.0,33.0,-100.00,NNE,30,7.0,12.0,87,0.00,,,-99.99,,2013-04-14 02:12:00,
2013-04-13 22:22:00,37.0,33.0,-100.00,NNE,15,6.0,9.0,86,0.00,,,-99.99,,2013-04-14 02:22:00,
2013-04-13 22:32:00,36.0,33.0,-100.00,North,10,4.0,7.0,87,0.00,,,-99.99,,2013-04-14 02:32:00,
2013-04-13 22:42:00,36.0,33.0,-100.00,NNE,30,5.0,7.0,87,0.00,,,-99.99,,2013-04-14 02:42:00,
2013-04-13 22:52:00,37.0,33.0,-100.00,NNE,15,5.0,9.0,86,0.00,,,-99.99,,2013-04-14 02:52:00,
2013-04-13 23:03:00,37.0,33.0,-100.00,NNE,20,5.0,7.0,86,0.00,,,-99.99,,2013-04-14 03:03:00,
2013-04-13 23:12:00,37.0,33.0,-100.00,NNE,15,6.0,11.0,85,0.00,,,-99.99,,2013-04-14 03:12:00,
2013-04-13 23:22:00,37.0,33.0,-100.00,NNE,25,6.0,11.0,84,0.00,,,-99.99,,2013-04-14 03:22:00,
2013-04-13 23:33:00,37.0,33.0,-100.00,NNE,25,6.0,11.0,84,0.00,,,-99.99,,2013-04-14 03:33:00,
2013-04-13 23:42:00,37.0,33.0,-100.00,NNE,25,6.0,11.0,84,0.00,,,-99.99,,2013-04-14 03:42:00,
2013-04-13 23:53:00,37.0,33.0,-100.00,NNE,25,6.0,11.0,84,0.00,,,-99.99,,2013-04-14 03:53:00,